sat.trackr.live / text

‹ back to catalog

PROGRESS-MS 33

NORAD 68319 · 2026-058A

PAYLOAD ACTIVE UNKNOWN

§ Identity

Operator
Country
CIS
Launch date
2026-03-22
Launch site
TYMSC
Launch vehicle
Mass (kg)
RCS (m²)

Purposes: station

External: N2YO · Heavens-Above · Gunter

§ Orbital elements

Epoch: 2026-09-07T11:57:47.376864Z

Period
92.96 min
Inclination
51.6306°
Eccentricity
0.0004983
Mean motion
15.49018229 rev/d
Perigee alt
416.2 km
Apogee alt
423.0 km
Semi-major
6,797.7 km
B*
1.0435e-4
RAAN
252.7093°
Arg perigee
115.8922°
Mean anomaly
244.2580°
Rev number
58,547

§ Raw data

PROGRESS-MS 331 68319U 26058A   26250.49846501  .00005306  00000+0  10435-3 0  99992 68319  51.6306 252.7093 0004983 115.8922 244.2580 15.49018229585475

JSON: /api/v1/satellites/68319 · /tle

For live sub-satellite position, see the globe view (requires WebGL).

§ Visibility from observer

Set your observer location to see the next 7 days of passes ≥ 10°. The values pass through the URL so the page stays shareable.

No JS? Fill the form by hand. The geolocation button needs JavaScript.